"TOA5","AWS1","CR1000","7964","CR1000.Std.14","CPU:AWS1_114.CR1","64363","TBL110"
"TIMESTAMP","RECORD","Wind_spd_WVc(1)","Wind_spd_WVc(2)","Air_Temp_Avg","Humidity_Avg","SW_upper_Wm2_Avg","Rain_Tot","Press_Avg","Issui_Tot","Depth_cm","SR50A_Raw","Quality","Ground_Temp_Avg(1)","Ground_Temp_Avg(2)","SW_lower_Wm2_Avg","Albedo_Avg","SWC_per(1)","SWC_per(2)","Period(1)","Period(2)"
"TS","RN","","","","","","","","","","","","","","","","","","",""
"","","WVc","WVc","Avg","Avg","Avg","Tot","Avg","Tot","Smp","Smp","Smp","Avg","Avg","Avg","Avg","Smp","Smp","Smp","Smp"
"2018-04-11 00:00:00",335725,0.382,49.15,3.903,50.2,0,0,867.5626,0,-5.893,3.216,190,3.116,2.844,0.2995783,0,53.73,62.06,34.21,36.15
"2018-04-11 00:10:00",335726,0.279,114.9,2.593,60.37,0,0,867.6063,0,-5.081,3.218,195,3.167,2.843,0.007584261,0,53.67,62,34.19,36.13
"2018-04-11 00:20:00",335727,0.225,106.5,2.34,60.02,0,0,867.5427,0,-4.734,3.209,172,3.072,2.845,0.1782301,0,53.67,62,34.19,36.13
"2018-04-11 00:30:00",335728,0.459,65.76,3.481,53,0,0,867.6708,0,-5.188,3.212,173,3.017,2.844,0.7887631,0,53.67,62,34.19,36.13
"2018-04-11 00:40:00",335729,0.316,68.63,3.292,54.65,0,0,867.5231,0,-4.86,3.21,186,3.032,2.843,0.03033704,0,53.73,62,34.21,36.13
"2018-04-11 00:50:00",335730,0.358,77.03,3.42,54.86,0,0,867.5535,0,-4.986,3.21,187,3.088,2.843,0.1820223,0,53.67,62,34.19,36.13
"2018-04-11 01:00:00",335731,0.508,86.5,3.248,58.02,0,0,867.5775,0,-5.012,3.209,181,2.959,2.843,0.1289324,0,53.67,61.94,34.19,36.12
"2018-04-11 01:10:00",335732,0.617,86.9,3.477,58.76,0,0,867.5114,0,-4.785,3.208,191,2.929,2.843,0.1365167,0,53.61,61.88,34.18,36.11
"2018-04-11 01:20:00",335733,0.634,104.8,3.472,59.16,0,0,867.3648,0,-5.464,3.214,184,2.929,2.843,0.00379213,0,53.67,61.88,34.19,36.11
"2018-04-11 01:30:00",335734,0.719,106.3,3.513,59.19,0,0,867.3888,0,-4.961,3.209,172,2.929,2.849,0,0,53.61,61.88,34.18,36.11
"2018-04-11 01:40:00",335735,0.73,106.7,3.486,59.63,0,0,867.1689,0,-4.584,3.205,1
"2018-04-11 01:40:00",335735,0.73,106.7,3.486,59.63,0,0,867.1689,0,-4.584,3.205,180,2.938,2.864,0,0,53.61,61.88,34.18,36.11
"2018-04-11 01:50:00",335736,1.441,134,4.48,62.95,0.3932969,0,867.0866,0,-4.684,3.199,172,2.892,2.883,0.4740163,0.624,53.67,61.88,34.19,36.11
"2018-04-11 02:00:00",335737,0.958,345.5,4.848,64.07,0.03539672,0,866.9158,0,-4.987,3.202,173,2.825,2.929,0.007584261,0.032,53.61,61.82,34.18,36.09
"2018-04-11 02:10:00",335738,0.892,96.2,4.746,66.48,0,0,866.7639,0,-4.785,3.199,188,2.822,2.974,0,0,53.61,61.88,34.18,36.11
"2018-04-11 02:20:00",335739,0.779,108.2,4.899,67.89,0,0,866.6708,0,-4.13,3.194,186,2.81,2.965,0,0,53.61,61.82,34.18,36.09
"2018-04-11 02:30:00",335740,0.733,132.1,5.003,68.82,0,0,866.5606,0,-5.011,3.2,195,2.83,2.954,0.03033704,0,53.61,61.82,34.18,36.09
"2018-04-11 02:40:00",335741,1.201,4.254,5.12,68.52,0,0,866.4043,0,-4.782,3.196,177,2.843,2.934,0,0,53.61,61.82,34.18,36.09
"2018-04-11 02:50:00",335742,1.362,143.5,5.647,68.12,0,0,866.1483,0,-4.827,3.194,177,2.818,2.926,0.09101026,0,53.61,61.82,34.18,36.09
"2018-04-11 03:00:00",335743,1.3,122.4,6.007,68.09,0,0,865.9983,0,-4.767,3.193,179,2.75,2.912,0.00379181,0,53.56,61.82,34.17,36.09
"2018-04-11 03:10:00",335744,0.995,125.2,6.024,69.06,0,0,865.9098,0,-4.862,3.193,191,2.687,2.901,0,0,53.61,61.82,34.18,36.09
"2018-04-11 03:20:00",335745,0.909,122,6.101,68.67,0,0,865.5306,0,-4.698,3.192,186,2.671,2.885,0,0,53.56,61.76,34.17,36.08
"2018-04-11 03:30:00",335746,0.885,137.8,6.158,69.39,0.007864108,0,865.4674,0,-4.762,3.192,181,2.653,2.866,0,0,53.56,61.76,34.17,36.08
"2018-04-11 03:40:00",335747,0.597,141.8,6.184,68.75,0,0,865.4758,0,-4.883,3.194,186,2.663,2.85,0,0,53.5,61.76,34.15,36.08
"2018-04-11 03:50:00",335748,0.658,43.61,6.007,69.54,0,0,865.5116,0,-4.653,3.192,191,2.671,2.844,0,0,53.56,61.76,34.17,36.08
"2018-04-11 04:00:00",335749,1.155,136.2,6.001,70.63,0,0,865.4737,0,-4.602,3.191,186,2.668,2.841,0,0,53.5,61.76,34.15,36.08
"2018-04-11 04:10:00",335750,0.855,151.6,6.114,71.9,0,0,865.5538,0,-4.55,3.19,185,2.662,2.84,0,0,53.56,61.76,34.17,36.08
"2018-04-11 04:20:00",335751,1.052,145.5,6.151,72.49,0,0,865.4863,0,-4.499,3.189,185,2.639,2.84,0,0,53.5,61.76,34.15,36.08
"2018-04-11 04:30:00",335752,0.699,137.2,6.057,73.02,0,0,865.3094,0,-4.677,3.192,172,2.599,2.84,0,0,53.56,61.7,34.17,36.06
"2018-04-11 04:40:00",335753,0.998,154.9,6.003,73.46,0,0,865.2146,0,-4.677,3.192,176,2.603,2.84,0,0,53.56,61.7,34.17,36.06
"2018-04-11 04:50:00",335754,0.849,167.1,5.996,74.19,0,0,865.2609,0,-4.78,3.194,186,2.617,2.84,0,0,53.5,61.7,34.15,36.06
"2018-04-11 05:00:00",335755,0.829,112,5.86,75.18,0,0,865.4758,0,-4.551,3.191,181,2.596,2.84,0,0,53.5,61.7,34.15,36.06
"2018-04-11 05:10:00",335756,0.727,88.1,5.951,74.81,0,0,865.657,0,-4.804,3.193,183,2.557,2.84,0,0,53.5,61.7,34.15,36.06
"2018-04-11 05:20:00",335757,1.13,143.2,6.034,73.71,0,0,865.3683,0,-4.55,3.19,176,2.572,2.84,0,0,53.5,61.64,34.15,36.05
"2018-04-11 05:30:00",335758,0.922,184.2,6.018,72.79,0.3145303,0,865.421,0,-4.45,3.19,171,2.579,2.84,0,0,53.5,61.64,34.15,36.05
"2018-04-11 05:40:00",335759,0.785,118.4,6.166,70.61,1.42325,0,865.5306,0,-4.728,3.192,185,2.579,2.84,0.08339845,0.052,53.5,61.64,34.15,36.05
"2018-04-11 05:50:00",335760,0.702,348,5.965,72.19,2.60667,0,865.7328,0,-4.577,3.192,171,2.564,2.84,0.007581678,0.002,53.45,61.64,34.14,36.05
"2018-04-11 06:00:00",335761,1.081,149.8,6.081,70.96,8.217105,0,865.8593,0,-4.55,3.189,171,2.541,2.84,1.213068,0.139,53.45,61.64,34.14,36.05
"2018-04-11 06:10:00",335762,0.694,120.8,6.324,69.73,16.28481,0,865.9414,0,-4.7,3.19,176,2.532,2.84,2.426137,0.148,53.45,61.64,34.14,36.05
"2018-04-11 06:20:00",335763,1.16,157.8,6.527,69.74,35.76996,0,865.8245,0,-4.547,3.187,180,2.534,2.84,5.599069,0.157,53.45,61.64,34.14,36.05
"2018-04-11 06:30:00",335764,1.351,136.2,6.739,70.38,61.32555,0,865.6783,0,-4.57,3.186,185,2.562,2.84,9.605985,0.157,53.45,61.58,34.14,36.04
"2018-04-11 06:40:00",335765,1.167,150.9,6.902,70.99,60.24043,0,865.8975,0,-4.62,3.186,175,2.57,2.84,9.340626,0.154,53.45,61.58,34.14,36.04
"2018-04-11 06:50:00",335766,0.893,131.4,6.925,71.73,85.969,0,865.6033,0,-4.62,3.186,177,2.563,2.84,13.29826,0.152,53.45,61.58,34.14,36.04
"2018-04-11 07:00:00",335767,1.156,146.3,7.116,71.44,102.4936,0,865.473,0,-4.794,3.186,185,2.543,2.84,16.04283,0.155,53.39,61.58,34.13,36.04
"2018-04-11 07:10:00",335768,1.049,118.2,7.205,71.47,89.25191,0,865.6393,0,-4.644,3.185,172,2.54,2.84,13.43094,0.15,53.45,61.58,34.14,36.04
"2018-04-11 07:20:00",335769,1.184,139.9,7.177,71.65,48.94485,0,865.7743,0,-4.668,3.185,171,2.6,2.84,6.789392,0.138,53.39,61.52,34.13,36.02
"2018-04-11 07:30:00",335770,0.927,124.7,7.176,72.22,43.49168,0,865.8164,0,-4.668,3.185,170,2.62,2.84,6.004689,0.137,53.45,61.52,34.14,36.02
"2018-04-11 07:40:00",335771,0.65,133,7.155,72.96,45.18229,0,865.7222,0,-4.618,3.185,171,2.614,2.84,6.235929,0.137,53.39,61.52,34.13,36.02
"2018-04-11 07:50:00",335772,0.69,111.6,7.156,73.95,82.19858,0,865.507,0,-4.441,3.183,172,2.577,2.84,11.95251,0.144,53.45,61.52,34.14,36.02
"2018-04-11 08:00:00",335773,0.836,89.8,7.404,73.65,107.1401,0,865.4879,0,-4.613,3.183,176,2.58,2.837,15.73188,0.146,53.39,61.52,34.13,36.02
"2018-04-11 08:10:00",335774,1.01,132.9,7.476,74.71,116.5911,0,865.2689,0,-4.461,3.181,180,2.58,2.836,17.41491,0.149,53.45,61.52,34.14,36.02
"2018-04-11 08:20:00",335775,1.229,135.3,7.632,75.21,97.25218,0,865.0477,0,-4.588,3.182,176,2.621,2.839,14.21177,0.144,53.39,61.52,34.13,36.02
"2018-04-11 08:30:00",335776,0.817,81.8,7.632,76.78,88.69233,0,865.0119,0,-4.585,3.182,171,2.621,2.836,12.4224,0.14,53.33,61.52,34.11,36.02
"2018-04-11 08:40:00",335777,1.184,122.7,7.641,77.91,105.1992,0,864.8961,0,-4.629,3.182,170,2.609,2.832,14.88235,0.14,53.39,61.52,34.13,36.02
"2018-04-11 08:50:00",335778,1.612,135.5,7.709,78.52,145.8624,0,864.3842,0,-4.415,3.179,170,2.55,2.817,21.36708,0.146,53.33,61.46,34.11,36.01
"2018-04-11 09:00:00",335779,1.105,147.1,8.03,77.12,151.1529,0,864.2136,0,-4.629,3.179,174,2.599,2.801,22.0405,0.145,53.39,61.46,34.13,36.01
"2018-04-11 09:10:00",335780,0.98,64.66,8.07,77.51,97.84787,0,864.5864,0,-4.516,3.178,179,2.645,2.781,13.7273,0.138,53.39,61.46,34.13,36.01
"2018-04-11 09:20:00",335781,1.246,139.7,8.18,77.05,157.3269,0,864.2094,0,-4.481,3.177,184,2.621,2.755,22.88263,0.144,53.33,61.46,34.11,36.01
"2018-04-11 09:30:00",335782,0.963,86.9,8.23,77.27,67.29997,0,864.3337,0,-4.582,3.179,188,2.609,2.753,8.674487,0.122,53.33,61.46,34.11,36.01
"2018-04-11 09:40:00",335783,0.76,31.13,8.11,78.22,111.7034,0,864.4516,0,-4.35,3.176,183,2.661,2.74,15.57133,0.137,53.33,61.52,34.11,36.02
"2018-04-11 09:50:00",335784,1.056,115.3,8.4,77.75,153.7099,0,864.0198,0,-4.45,3.176,188,2.709,2.739,22.0514,0.143,53.33,61.46,34.11,36.01
"2018-04-11 10:00:00",335785,1.266,101.2,8.5,77.37,84.1514,0,863.6323,0,-4.575,3.177,187,2.695,2.737,11.36485,0.13,53.28,61.46,34.1,36.01
"2018-04-11 10:10:00",335786,1.017,55.18,8.34,78.53,23.9944,0,863.6218,0,-4.908,3.182,191,2.75,2.741,2.641312,0.106,53.28,61.4,34.1,36
"2018-04-11 10:20:00",335787,0.989,62.78,7.659,88.1,31.59165,0,863.7271,0,-4.334,3.18,191,2.733,2.722,3.603857,0.113,53.28,61.4,34.1,36
"2018-04-11 10:30:00",335788,1.002,49.06,7.433,99,110.5708,0,863.7376,0,-4.284,3.18,174,2.811,2.709,13.66131,0.122,53.28,61.4,34.1,36
"2018-04-11 10:40:00",335789,1.188,129.2,7.494,100,102.0538,0,863.4532,0,-4.282,3.179,171,2.832,2.682,12.78213,0.125,53.33,61.4,34.11,36
"2018-04-11 10:50:00",335790,1.397,143.2,7.805,98.4,243.7328,0,863.3206,0,-4.251,3.176,171,2.814,2.672,31.76017,0.13,53.28,61.46,34.1,36.01
"2018-04-11 11:00:00",335791,1.201,143.9,8.52,87.8,423.3194,0,863.1015,0,-4.417,3.173,170,2.866,2.71,56.16863,0.132,53.33,61.4,34.11,36
"2018-04-11 11:10:00",335792,1.152,66.9,8.74,82.7,113.9823,0,862.8888,0,-4.599,3.177,171,2.844,2.708,13.90005,0.117,53.33,61.4,34.11,36
"2018-04-11 11:20:00",335793,1.569,86.3,8.18,85.6,56.90662,0,862.8214,0,-4.174,3.175,192,2.884,2.696,6.878023,0.12,53.33,61.4,34.11,36
"2018-04-11 11:30:00",335794,1.236,113.4,8.01,86,29.91341,0,862.7245,0,-4.176,3.176,171,2.926,2.709,3.728912,0.128,53.28,61.4,34.1,36
"2018-04-11 11:40:00",335795,1.235,89.5,7.712,90.4,17.4151,0.5,862.773,0,-4.005,3.177,178,2.996,2.687,2.292674,0.134,53.28,61.4,34.1,36
"2018-04-11 11:50:00",335796,0.929,108.4,7.333,99.7,24.83548,0,862.5707,0,-4.209,3.18,192,3.014,2.668,2.648891,0.107,53.22,61.34,34.08,35.98
"2018-04-11 12:00:00",335797,1.276,124.7,7.194,100,31.45016,0.5,862.358,0.5,-4.312,3.182,179,3.026,2.668,3.403011,0.108,53.28,61.34,34.1,35.98
"2018-04-11 12:10:00",335798,0.972,115.2,7.113,100,34.03629,0,862.3412,0,-4.49,3.184,174,3.054,2.668,3.592488,0.106,53.28,61.34,34.1,35.98
"2018-04-11 12:20:00",335799,0.869,89.4,7.055,100,33.06553,0.5,862.3412,0.5,-4.441,3.184,192,3.088,2.67,3.296906,0.1,53.28,61.34,34.1,35.98
"2018-04-11 12:30:00",335800,0.863,93.8,6.959,100,28.47528,0,862.1327,0,-4.442,3.184,171,3.066,2.67,2.792929,0.098,53.28,61.4,34.1,36
"2018-04-11 12:40:00",335801,0.955,40.82,6.929,100,35.78562,0,862.1032,0,-4.544,3.185,192,3.123,2.678,3.475047,0.097,53.22,61.4,34.08,36
"2018-04-11 12:50:00",335802,0.739,55.06,7.004,100,38.51371,0.5,862.0632,0.5,-4.37,3.183,171,3.13,2.694,3.603934,0.093,53.22,61.4,34.08,36
"2018-04-11 13:00:00",335803,0.867,77.16,7.112,100,49.04137,0,861.9368,0,-4.453,3.183,180,3.168,2.718,4.820612,0.098,53.22,61.4,34.08,36
"2018-04-11 13:10:00",335804,0.705,79.41,7.252,100,40.67153,0.5,861.8441,0.5,-4.505,3.183,172,3.219,2.758,3.945386,0.097,53.22,61.34,34.08,35.98
"2018-04-11 13:20:00",335805,0.766,73.51,7.292,100,34.49579,0,861.6419,0,-4.353,3.181,171,3.255,2.774,3.388206,0.098,53.28,61.34,34.1,35.98
"2018-04-11 13:30:00",335806,0.558,104.3,7.335,100,40.93922,0,861.4376,0,-4.33,3.181,188,3.228,2.784,3.880994,0.095,53.22,61.34,34.08,35.98
"2018-04-11 13:40:00",335807,0.623,19.3,7.348,100,30.95934,0,861.3807,0,-4.359,3.181,170,3.234,2.788,2.74402,0.089,53.33,61.4,34.11,36
"2018-04-11 13:50:00",335808,0.804,108.2,7.409,100,39.44279,0.5,861.2396,0,-4.309,3.18,187,3.335,2.793,3.839421,0.097,53.28,61.34,34.1,35.98
"2018-04-11 14:00:00",335809,0.658,120.2,7.471,100,32.0343,0,860.9005,0.5,-4.015,3.177,193,3.362,2.8,3.058777,0.093,53.33,61.4,34.11,36
"2018-04-11 14:10:00",335810,0.865,62.19,7.473,100,25.27352,0,860.8016,0,-4.114,3.178,193,3.337,2.787,2.37658,0.093,53.33,61.4,34.11,36
"2018-04-11 14:20:00",335811,0.602,48.05,7.512,100,27.74958,0,860.8795,0,-4.186,3.178,192,3.379,2.764,2.603951,0.093,53.39,61.4,34.13,36
"2018-04-11 14:30:00",335812,0.547,129.7,7.501,100,22.32434,1,860.8816,0.5,-4.49,3.182,194,3.432,2.758,1.823118,0.079,53.39,61.34,34.13,35.98
"2018-04-11 14:40:00",335813,0.511,39.6,7.389,100,29.55776,0,861.0016,0.5,-4.644,3.183,173,3.453,2.76,2.694909,0.09,53.45,61.4,34.14,36
"2018-04-11 14:50:00",335814,1.231,57.97,7.627,100,28.7246,0,860.8163,0,-4.692,3.182,172,3.42,2.743,2.831381,0.098,53.56,61.4,34.17,36
"2018-04-11 15:00:00",335815,1.058,52.82,7.775,100,32.74957,0,860.633,0,-4.739,3.182,171,3.49,2.754,3.39609,0.103,53.56,61.4,34.17,36
"2018-04-11 15:10:00",335816,0.975,45.89,7.877,100,38.97988,0,860.6141,0,-4.712,3.181,179,3.511,2.791,4.119991,0.105,53.61,61.46,34.18,36.01
"2018-04-11 15:20:00",335817,0.87,45.37,7.981,100,35.56673,0,860.5067,0,-4.7,3.181,171,3.519,2.79,3.634738,0.101,53.61,61.46,34.18,36.01
"2018-04-11 15:30:00",335818,1.135,48.56,8.05,100,31.00514,0,860.5488,0,-4.467,3.178,192,3.482,2.779,3.179738,0.101,53.73,61.46,34.21,36.01
"2018-04-11 15:40:00",335819,0.981,43.69,8.08,100,23.08439,0,860.3381,0,-4.363,3.177,184,3.514,2.804,2.277695,0.097,53.73,61.46,34.21,36.01
"2018-04-11 15:50:00",335820,1.083,49.07,8.12,100,24.78993,0,860.3255,0,-4.589,3.179,181,3.553,2.834,2.580848,0.103,53.73,61.52,34.21,36.02
"2018-04-11 16:00:00",335821,0.88,71.45,8.13,100,24.00393,0,860.1886,0,-4.389,3.177,188,3.592,2.823,2.414107,0.099,53.78,61.52,34.22,36.02
"2018-04-11 16:10:00",335822,0.945,62.56,8.14,100,20.69844,0,860.2771,0,-4.285,3.176,189,3.562,2.818,2.122304,0.102,53.73,61.52,34.21,36.02
"2018-04-11 16:20:00",335823,0.88,64.38,8.12,100,23.12684,0,860.3192,0,-4.586,3.179,180,3.517,2.852,2.349622,0.099,53.78,61.58,34.22,36.04
"2018-04-11 16:30:00",335824,0.777,40.79,8.09,100,9.177516,0,860.3381,0,-4.486,3.179,192,3.57,2.872,0.6669814,0.07,53.73,61.58,34.21,36.04
"2018-04-11 16:40:00",335825,0.414,22.39,7.978,100,8.222462,0.5,860.3298,0.5,-5.094,3.185,171,3.642,2.851,0.5987695,0.072,53.73,61.64,34.21,36.05
"2018-04-11 16:50:00",335826,0.3,28.27,7.875,100,6.544106,0.5,860.3318,0.5,-4.561,3.18,176,3.665,2.838,0.363806,0.045,53.73,61.64,34.21,36.05
"2018-04-11 17:00:00",335827,0.908,40.13,7.903,100,10.22691,1,860.3298,0.5,-4.334,3.178,171,3.638,2.843,0.9057283,0.085,53.78,61.64,34.22,36.05
"2018-04-11 17:10:00",335828,0.179,33.33,7.763,100,3.757439,0.5,860.3298,0.5,-4.157,3.177,192,3.686,2.844,0.09095127,0.018,53.9,61.7,34.25,36.06
"2018-04-11 17:20:00",335829,0.015,297.7,7.526,100,4.260512,1,860.3298,1,-3.982,3.177,194,3.703,2.843,0.0227378,0.004,54.29,61.7,34.34,36.06
"2018-04-11 17:30:00",335830,0.185,263.9,7.413,100,3.765244,2,860.4645,1.5,-3.98,3.177,193,3.729,2.872,0.1326349,0.022,54.58,61.76,34.41,36.08
"2018-04-11 17:40:00",335831,0.108,89.7,7.509,100,7.903958,1,860.4456,1.5,-4.237,3.179,174,3.744,2.894,0.8223469,0.099,54.97,61.88,34.51,36.11
"2018-04-11 17:50:00",335832,0.037,17.06,7.495,100,4.099396,0,860.572,0,-4.287,3.18,171,3.808,2.895,0.2046412,0.03,55.09,62.48,34.53,36.24
"2018-04-11 18:00:00",335833,0.084,59.44,7.552,100,1.493534,0.5,860.494,0.5,-4.233,3.178,171,3.857,2.887,0.00757924,0.005,55.09,63.26,34.53,36.42
"2018-04-11 18:10:00",335834,0.019,298.5,7.554,100,0.9275701,0,860.553,0,-4.083,3.177,193,3.868,2.888,0.02273773,0.016,55.09,63.51,34.53,36.47
"2018-04-11 18:20:00",335835,0.243,36.43,7.624,100,0.5070186,0.5,860.6436,0,-3.979,3.175,187,3.922,2.887,0.02273784,0.048,55.15,63.63,34.55,36.5
"2018-04-11 18:30:00",335836,0.121,16.52,7.584,100,0.1061204,0,860.7805,0,-4.39,3.181,171,3.901,2.888,0.05305494,0.112,55.09,63.75,34.53,36.53
"2018-04-11 18:40:00",335837,0.048,2.497,7.434,100,0,0.5,860.8668,0.5,-4.335,3.18,193,3.893,2.867,0,0,55.09,63.81,34.53,36.54
"2018-04-11 18:50:00",335838,0.092,32.8,7.549,100,0.2358194,0,860.8352,0,-4.562,3.182,177,3.926,2.863,0.04168535,0.088,55.09,63.87,34.53,36.55
"2018-04-11 19:00:00",335839,0.171,52.8,7.586,100,0.05109463,0,860.9742,0,-4.641,3.182,182,3.984,2.92,0,0,55.03,63.93,34.52,36.57
"2018-04-11 19:10:00",335840,0.37,63.2,7.599,100,0,0,861.2375,0,-4.727,3.183,181,4.022,2.979,0,0,55.03,63.99,34.52,36.58
"2018-04-11 19:20:00",335841,0.214,30.26,7.527,100,0,0,861.2586,0.5,-4.803,3.185,172,4.005,3.021,0,0,55.03,64.05,34.52,36.59
"2018-04-11 19:30:00",335842,0.078,319,7.328,100,0,0,861.3408,0,-4.803,3.186,177,3.983,3.022,0,0,55.03,64.24,34.52,36.63
"2018-04-11 19:40:00",335843,0.054,34.93,7.275,100,0,0,861.3702,0,-4.423,3.182,190,3.988,2.999,0,0,55.03,64.3,34.52,36.65
"2018-04-11 19:50:00",335844,0.144,25,7.291,100,0,0,861.5703,0,-4.549,3.183,188,4.046,2.99,0,0,55.03,64.36,34.52,36.66
"2018-04-11 20:00:00",335845,0.34,68.28,7.428,100,0.007861142,0,861.5977,0,-4.7,3.184,183,4.067,3.017,0.01515925,0.032,55.03,64.36,34.52,36.66
"2018-04-11 20:10:00",335846,0.097,11.32,7.434,100,0.01572228,0.5,861.6503,0,-4.501,3.182,182,4.076,3.04,0,0,54.97,64.36,34.51,36.66
"2018-04-11 20:20:00",335847,0.035,47.41,7.433,100,0.106132,0,861.7557,0,-4.48,3.181,191,4.126,3.039,0,0,54.97,64.42,34.51,36.68
"2018-04-11 20:30:00",335848,0.22,87.2,7.537,100,0.07468588,0,861.8463,0,-4.655,3.183,183,4.126,3.045,0.01137025,0.024,54.97,64.36,34.51,36.66
"2018-04-11 20:40:00",335849,0.093,21.41,7.491,100,0,0,861.8904,0,-4.626,3.183,192,4.117,3.066,0,0,54.97,64.3,34.51,36.65
"2018-04-11 20:50:00",335850,0.23,44.77,7.498,100,0,0,862.0336,0,-4.654,3.183,184,4.118,3.101,0,0,54.92,64.24,34.49,36.63
"2018-04-11 21:00:00",335851,0.04,12.96,7.497,100,0,0,862.0989,0,-4.658,3.183,182,4.124,3.128,0,0,54.92,64.12,34.49,36.61
"2018-04-11 21:10:00",335852,0.014,31.8,7.492,100,0,0,862.0989,0,-4.407,3.181,196,4.127,3.123,0,0,54.92,64.05,34.49,36.59
"2018-04-11 21:20:00",335853,0.086,9.67,7.461,100,0,0,862.0674,0,-4.553,3.183,193,4.12,3.094,0,0,54.92,63.99,34.49,36.58
"2018-04-11 21:30:00",335854,0.17,21.58,7.35,100,0,0,862.1242,0.5,-4.324,3.181,177,4.107,3.076,0,0,54.92,63.99,34.49,36.58
"2018-04-11 21:40:00",335855,0.082,31.98,7.226,100,0,0,862.0989,0,-4.536,3.184,190,4.108,3.088,0,0,54.86,63.93,34.48,36.57
"2018-04-11 21:50:00",335856,0,0,7.258,100,0,0.5,862.0485,0,-4.431,3.182,177,4.109,3.109,0,0,54.86,63.93,34.48,36.57
"2018-04-11 22:00:00",335857,0,0,7.243,100,0.007861398,0,862.0884,0,-4.404,3.183,178,4.087,3.122,0,0,54.92,63.87,34.49,36.55
"2018-04-11 22:10:00",335858,0,0,7.12,100,0,0,862.1053,0,-4.309,3.182,178,4.091,3.128,0,0,54.86,63.87,34.48,36.55
"2018-04-11 22:20:00",335859,0,0,7.225,100,0.09433846,0,862.0989,0,-4.378,3.182,184,4.094,3.131,0,0,54.86,63.87,34.48,36.55
"2018-04-11 22:30:00",335860,0.066,276.9,7.158,100,0.007861363,0,862.1032,0,-4.409,3.183,192,4.124,3.159,0,0,54.86,63.81,34.48,36.54
"2018-04-11 22:40:00",335861,0.036,228.8,7.17,100,0,0,861.9473,0,-4.46,3.183,192,4.136,3.171,0,0,54.86,63.81,34.48,36.54
"2018-04-11 22:50:00",335862,0.165,3.322,7.151,100,0.08648168,1,862.2148,1,-4.443,3.183,190,4.136,3.188,0,0,54.86,63.81,34.48,36.54
"2018-04-11 23:00:00",335863,0.007,252,7.117,100,0,0.5,862.2548,0.5,-4.417,3.183,194,4.168,3.192,0,0,54.86,63.81,34.48,36.54
"2018-04-11 23:10:00",335864,0,0,7.125,100,0.003931037,0.5,862.3222,0.5,-4.518,3.184,194,4.179,3.19,0,0,54.86,63.75,34.48,36.53
"2018-04-11 23:20:00",335865,0.15,145.3,7.11,100,0.01179278,0,862.2401,0,-4.54,3.184,194,4.179,3.183,0,0,54.97,63.75,34.51,36.53
"2018-04-11 23:30:00",335866,0.391,139.7,7.05,100,0,0,862.0906,0,-4.368,3.183,195,4.185,3.178,0,0,54.92,63.81,34.49,36.54
"2018-04-11 23:40:00",335867,0.766,159.1,6.957,100,0,0,862.0189,0,-4.391,3.184,194,4.183,3.171,0,0,54.97,63.87,34.51,36.55
"2018-04-11 23:50:00",335868,0.397,146.3,6.878,100,0,0,861.9662,0,-4.473,3.185,194,4.186,3.191,0,0,54.97,63.87,34.51,36.55
